Location: ??????????
(41.2581°N, 22.8006°E)
Time: 23:16:42
(UTC+00:00)

Cosmos 1900 - Pass Details

Date: 13 December 2025
Orbit: 680 x 735 km, 66.1° (Epoch: 19 January)

Event Time Altitude Azimuth Distance (km) Brightness Sun altitude
Rises 15:28:05 0° 330° (NNW) 3,139 7.7 -5.5°
Reaches altitude 10° 15:30:29 10° 333° (NNW) 2,207 6.9 -5.9°
Maximum altitude 15:35:30 73° 58° (ENE) 745 4.3 -6.7°
Drops below altitude 10° 15:40:25 10° 143° (SE) 2,157 6.7 -7.6°
Sets 15:42:44 0° 145° (SE) 3,062 7.5 -8.0°
